Weather History for Bakersfield, CA

Change the Weather History Date:

Monday, March 4, 2013

  Actual Average Record
Temperature  
Mean Temperature 59 °F 56 °F  
Max Temperature 72 °F 67 °F 88 °F (1929)
Min Temperature 46 °F 45 °F 28 °F (1907)
Degree Days  
Heating Degree Days 6    
Month to date heating degree days 13  
Since 1 July heating degree days 1633  
Cooling Degree Days 0    
Month to date cooling degree days 0  
Year to date cooling degree days 0  
Growing Degree Days 9 (Base 50)    
Moisture  
Dew Point 42 °F    
Average Humidity 55    
Maximum Humidity 77    
Minimum Humidity 33    
Precipitation  
Precipitation 0.00 in 0.04 in 0.45 in (1995)
Month to date precipitation T 0.17  
Year to date precipitation 1.43 2.57  
Since 1 July precipitation 2.22 4.65  
Snow  
Snow 0.00 in - - ()
Month to date snowfall 0.0  
Since 1 July snowfall 0.0  
Snow Depth 0.00 in    
Sea Level Pressure  
Sea Level Pressure 30.06 in    
Wind  
Wind Speed 4 mph (WNW)    
Max Wind Speed 12 mph    
Max Gust Speed 16 mph    
Visibility 10 miles    
Events      
T = Trace of Precipitation, MM = Missing Value Source: NWS Daily Summary

Daily Weather History Graph

Daily Weather History Graph

Search for Another Location

Airport:

Trip Planner

Search our weather history database for the weather conditions in past years. The results will help you decide how hot, cold, wet, or windy it might be!

Date:

Astronomy

Mar. 04, 2013 Rise Set
Actual Time 6:21 AM PST 5:54 PM PST
Civil Twilight 5:56 AM PST 6:20 PM PST
Nautical Twilight 5:26 AM PST 6:49 PM PST
Astronomical Twilight 4:57 AM PST 7:19 PM PST
Moon 12:27 AM PST (3/4) 10:49 AM PST (3/4)
Length of Visible Light 12h 23m
Length of Day
11h 33m
Waning Gibbous, 51% of the Moon is Illuminated
Mar 4
Waning Gibbous
Mar 4
Last Quarter
Mar 11
New
Mar 19
First Quarter
Mar 27
Full

Hourly Weather History & Observations

Time (PST) Temp. Dew Point Humidity Pressure Visibility Wind Dir Wind Speed Gust Speed Precip Events Conditions
12:54 AM 55.9 °F 43.0 °F 62% 30.03 in 10.0 mi NW 5.8 mph - N/A   Overcast
1:54 AM 57.9 °F 42.1 °F 56% 30.04 in 10.0 mi North 8.1 mph - N/A   Overcast
2:54 AM 55.9 °F 43.0 °F 62% 30.04 in 10.0 mi NNW 10.4 mph - N/A   Mostly Cloudy
3:54 AM 55.4 °F 42.8 °F 63% 30.06 in 10.0 mi West 4.6 mph - N/A   Overcast
4:54 AM 52.0 °F 43.0 °F 71% 30.06 in 10.0 mi West 4.6 mph - N/A   Clear
5:54 AM 50.0 °F 42.1 °F 74% 30.07 in 10.0 mi Calm Calm - N/A   Clear
6:54 AM 48.0 °F 41.0 °F 77% 30.09 in 10.0 mi NNW 4.6 mph - N/A   Clear
7:54 AM 53.1 °F 43.0 °F 69% 30.12 in 10.0 mi NW 3.5 mph - N/A   Clear
8:54 AM 55.0 °F 44.1 °F 67% 30.12 in 10.0 mi Calm Calm - N/A   Clear
9:54 AM 57.9 °F 44.1 °F 60% 30.12 in 10.0 mi WSW 4.6 mph - N/A   Clear
10:54 AM 63.0 °F 43.0 °F 48% 30.12 in 10.0 mi West 3.5 mph - N/A   Clear
11:54 AM 64.9 °F 43.0 °F 45% 30.09 in 10.0 mi Calm Calm - N/A   Clear
12:54 PM 66.9 °F 42.1 °F 40% 30.07 in 10.0 mi Variable 5.8 mph - N/A   Partly Cloudy
1:54 PM 69.1 °F 41.0 °F 36% 30.04 in 10.0 mi WNW 8.1 mph - N/A   Clear
2:54 PM 70.0 °F 39.9 °F 33% 30.03 in 10.0 mi North 8.1 mph - N/A   Clear
3:54 PM 70.0 °F 39.0 °F 32% 30.02 in 10.0 mi West 6.9 mph - N/A   Clear
4:54 PM 69.1 °F 39.0 °F 33% 30.02 in 10.0 mi WNW 5.8 mph - N/A   Clear
5:54 PM 66.9 °F 39.0 °F 36% 30.02 in 10.0 mi West 4.6 mph - N/A   Clear
6:54 PM 63.0 °F 37.9 °F 40% 30.01 in 10.0 mi Calm Calm - N/A   Clear
7:54 PM 63.0 °F 39.9 °F 43% 30.01 in 10.0 mi Calm Calm - N/A   Clear
8:54 PM 57.9 °F 39.9 °F 51% 30.03 in 10.0 mi Calm Calm - N/A   Clear
9:54 PM 57.9 °F 42.1 °F 56% 30.04 in 10.0 mi Calm Calm - N/A   Clear
11:54 PM 54.0 °F 39.0 °F 57% 30.03 in 10.0 mi East 3.5 mph - N/A   Clear